Time,TemperatureF,DewpointF,PressureIn,WindDirection,WindDirectionDegrees,WindSpeedMPH,WindSpeedGustMPH,Humidity,HourlyPrecipIn,Conditions,Clouds,dailyrainin,SoftwareType,DateUTC
2013-02-18 00:00:00,40.9,30.4,30.38,SE,132,0.0,0.0,66,0.00,,---,0.00,VWS V14.01,2013-02-18 05:00:00,
2013-02-18 00:05:00,40.3,30.2,30.38,SE,132,0.0,1.0,67,0.00,,---,0.00,VWS V14.01,2013-02-18 05:05:00,
2013-02-18 00:10:00,40.9,30.4,30.37,ENE,65,1.0,2.0,66,0.00,,---,0.00,VWS V14.01,2013-02-18 05:10:00,
2013-02-18 00:15:00,41.7,30.4,30.37,NE,48,0.0,3.0,64,0.00,,---,0.00,VWS V14.01,2013-02-18 05:15:00,
2013-02-18 00:20:00,41.7,31.2,30.37,NE,49,0.0,0.0,66,0.00,,---,0.00,VWS V14.01,2013-02-18 05:20:00,
2013-02-18 00:25:00,41.2,31.5,30.37,NE,49,0.0,0.0,68,0.00,,---,0.00,VWS V14.01,2013-02-18 05:25:00,
2013-02-18 00:30:00,40.6,31.6,30.37,NE,49,1.0,1.0,70,0.00,,---,0.00,VWS V14.01,2013-02-18 05:30:00,
2013-02-18 00:35:00,40.2,31.9,30.37,NE,49,0.0,0.0,72,0.00,,---,0.00,VWS V14.01,2013-02-18 05:35:00,
2013-02-18 00:40:00,39.7,32.1,30.37,NE,48,0.0,0.0,74,0.00,,---,0.00,VWS V14.01,2013-02-18 05:40:00,
2013-02-18 00:45:00,39.6,32.3,30.37,NE,49,0.0,0.0,75,0.00,,---,0.00,VWS V14.01,2013-02-18 05:45:00,
2013-02-18 00:50:00,39.2,32.0,30.37,NE,49,0.0,0.0,75,0.00,,---,0.00,VWS V14.01,2013-02-18 05:50:00,
2013-02-18 00:55:00,38.7,32.1,30.37,NE,49,0.0,0.0,77,0.00,,---,0.00,VWS V14.01,2013-02-18 05:55:00,
2013-02-18 01:00:00,38.3,32.0,30.37,NE,48,0.0,0.0,78,0.00,,---,0.00,VWS V14.01,2013-02-18 06:00:00,
2013-02-18 01:05:00,38.0,32.1,30.37,NE,49,0.0,0.0,79,0.00,,---,0.00,VWS V14.01,2013-02-18 06:05:00,
2013-02-18 01:10:00,37.7,32.1,30.37,NE,48,0.0,0.0,80,0.00,,---,0.00,VWS V14.01,2013-02-18 06:10:00,
2013-02-18 01:15:00,37.5,32.2,30.37,NE,44,0.0,1.0,81,0.00,,---,0.00,VWS V14.01,2013-02-18 06:15:00,
2013-02-18 01:20:00,37.5,32.5,30.37,NE,44,0.0,1.0,82,0.00,,---,0.00,VWS V14.01,2013-02-18 06:20:00,
2013-02-18 01:25:00,37.5,32.5,30.37,NE,44,0.0,0.0,82,0.00,,---,0.00,VWS V14.01,2013-02-18 06:25:00,
2013-02-18 01:30:00,37.3,32.6,30.37,NE,44,0.0,0.0,83,0.00,,---,0.00,VWS V14.01,2013-02-18 06:30:00,
2013-02-18 01:35:00,37.2,32.5,30.37,NE,44,0.0,0.0,83,0.00,,---,0.00,VWS V14.01,2013-02-18 06:35:00,
2013-02-18 01:40:00,37.1,32.7,30.37,NE,44,0.0,0.0,84,0.00,,---,0.00,VWS V14.01,2013-02-18 06:40:00,
2013-02-18 01:45:00,37.1,33.0,30.37,NE,46,0.0,0.0,85,0.00,,---,0.00,VWS V14.01,2013-02-18 06:45:00,
2013-02-18 01:50:00,36.7,32.6,30.37,NE,44,0.0,0.0,85,0.00,,---,0.00,VWS V14.01,2013-02-18 06:50:00,
2013-02-18 01:55:00,36.5,32.4,30.37,NE,44,0.0,0.0,85,0.00,,---,0.00,VWS V14.01,2013-02-18 06:55:00,
2013-02-18 02:00:00,36.7,32.9,30.36,NE,44,0.0,1.0,86,0.00,,---,0.00,VWS V14.01,2013-02-18 07:00:00,
2013-02-18 02:05:00,37.1,33.3,30.36,NE,48,0.0,0.0,86,0.00,,---,0.00,VWS V14.01,2013-02-18 07:05:00,
2013-02-18 02:10:00,37.6,33.5,30.36,NE,44,0.0,1.0,85,0.00,,---,0.00,VWS V14.01,2013-02-18 07:10:00,
2013-02-18 02:15:00,38.1,33.7,30.36,NE,49,0.0,0.0,84,0.00,,---,0.00,VWS V14.01,2013-02-18 07:15:00,
2013-02-18 02:20:00,38.7,33.7,30.36,ENE,60,2.0,3.0,82,0.00,,---,0.00,VWS V14.01,2013-02-18 07:20:00,
2013-02-18 02:25:00,39.3,33.7,30.35,South,188,0.0,1.0,80,0.00,,---,0.00,VWS V14.01,2013-02-18 07:25:00,
2013-02-18 02:30:00,39.6,33.6,30.36,ENE,72,2.0,2.0,79,0.00,,---,0.00,VWS V14.01,2013-02-18 07:30:00,
2013-02-18 02:35:00,40.4,33.8,30.35,ENE,60,2.0,3.0,77,0.00,,---,0.00,VWS V14.01,2013-02-18 07:35:00,
2013-02-18 02:40:00,40.7,33.4,30.36,ENE,58,0.0,1.0,75,0.00,,---,0.00,VWS V14.01,2013-02-18 07:40:00,
2013-02-18 02:45:00,40.5,33.2,30.36,ENE,60,0.0,0.0,75,0.00,,---,0.00,VWS V14.01,2013-02-18 07:45:00,
2013-02-18 02:50:00,40.2,32.9,30.36,ENE,58,0.0,0.0,75,0.00,,---,0.00,VWS V14.01,2013-02-18 07:50:00,
2013-02-18 02:55:00,39.5,32.9,30.36,ENE,58,1.0,1.0,77,0.00,,---,0.00,VWS V14.01,2013-02-18 07:55:00,
2013-02-18 03:00:00,39.0,32.7,30.35,NNW,333,1.0,4.0,78,0.00,,---,0.00,VWS V14.01,2013-02-18 08:00:00,
2013-02-18 03:05:00,39.1,32.8,30.36,North,5,0.0,1.0,78,0.00,,---,0.00,VWS V14.01,2013-02-18 08:05:00,
2013-02-18 03:10:00,39.4,32.8,30.35,NNE,26,1.0,2.0,77,0.00,,---,0.00,VWS V14.01,2013-02-18 08:10:00,
2013-02-18 03:15:00,39.7,32.4,30.35,NE,47,1.0,3.0,75,0.00,,---,0.00,VWS V14.01,2013-02-18 08:15:00,
2013-02-18 03:20:00,40.3,32.3,30.35,NNE,26,1.0,2.0,73,0.00,,---,0.00,VWS V14.01,2013-02-18 08:20:00,
2013-02-18 03:25:00,40.3,32.7,30.35,NNE,30,2.0,2.0,74,0.00,,---,0.00,VWS V14.01,2013-02-18 08:25:00,
2013-02-18 03:30:00,40.0,32.4,30.35,North,351,0.0,1.0,74,0.00,,---,0.00,VWS V14.01,2013-02-18 08:30:00,
2013-02-18 03:35:00,39.8,31.9,30.35,North,359,4.0,4.0,73,0.00,,---,0.00,VWS V14.01,2013-02-18 08:35:00,
2013-02-18 03:40:00,40.0,31.0,30.35,North,5,0.0,1.0,70,0.00,,---,0.00,VWS V14.01,2013-02-18 08:40:00,
2013-02-18 03:45:00,39.4,31.1,30.35,North,5,0.0,0.0,72,0.00,,---,0.00,VWS V14.01,2013-02-18 08:45:00,
2013-02-18 03:50:00,39.3,31.0,30.35,NNE,18,2.0,3.0,72,0.00,,---,0.00,VWS V14.01,2013-02-18 08:50:00,
2013-02-18 03:55:00,39.6,31.0,30.35,ENE,63,3.0,3.0,71,0.00,,---,0.00,VWS V14.01,2013-02-18 08:55:00,
2013-02-18 04:00:00,39.7,30.7,30.35,East,91,0.0,0.0,70,0.00,,---,0.00,VWS V14.01,2013-02-18 09:00:00,
2013-02-18 04:05:00,39.2,30.6,30.35,East,91,0.0,0.0,71,0.00,,---,0.00,VWS V14.01,2013-02-18 09:05:00,
2013-02-18 04:10:00,38.5,30.6,30.35,East,91,0.0,0.0,73,0.00,,---,0.00,VWS V14.01,2013-02-18 09:10:00,
2013-02-18 04:15:00,38.2,30.3,30.35,East,91,0.0,0.0,73,0.00,,---,0.00,VWS V14.01,2013-02-18 09:15:00,
2013-02-18 04:20:00,38.1,30.2,30.35,East,91,0.0,1.0,73,0.00,,---,0.00,VWS V14.01,2013-02-18 09:20:00,
2013-02-18 04:25:00,37.9,30.4,30.35,East,91,0.0,1.0,74,0.00,,---,0.00,VWS V14.01,2013-02-18 09:25:00,
2013-02-18 04:30:00,37.5,30.3,30.35,East,91,0.0,0.0,75,0.00,,---,0.00,VWS V14.01,2013-02-18 09:30:00,
2013-02-18 04:35:00,37.1,29.9,30.35,East,90,0.0,0.0,75,0.00,,---,0.00,VWS V14.01,2013-02-18 09:35:00,
2013-02-18 04:40:00,36.9,30.0,30.35,East,90,0.0,0.0,76,0.00,,---,0.00,VWS V14.01,2013-02-18 09:40:00,
2013-02-18 04:45:00,37.2,30.0,30.35,NE,56,0.0,1.0,75,0.00,,---,0.00,VWS V14.01,2013-02-18 09:45:00,
2013-02-18 04:50:00,37.5,29.6,30.34,ENE,58,0.0,1.0,73,0.00,,---,0.00,VWS V14.01,2013-02-18 09:50:00,
2013-02-18 04:55:00,37.9,29.7,30.35,ENE,72,1.0,2.0,72,0.00,,---,0.00,VWS V14.01,2013-02-18 09:55:00,
2013-02-18 05:00:00,37.9,29.7,30.35,ENE,71,0.0,0.0,72,0.00,,---,0.00,VWS V14.01,2013-02-18 10:00:00,
2013-02-18 05:05:00,37.7,29.5,30.35,ENE,71,0.0,2.0,72,0.00,,---,0.00,VWS V14.01,2013-02-18 10:05:00,
2013-02-18 05:10:00,37.9,29.4,30.35,East,101,0.0,2.0,71,0.00,,---,0.00,VWS V14.01,2013-02-18 10:10:00,
2013-02-18 05:15:00,37.9,29.0,30.35,East,88,1.0,2.0,70,0.00,,---,0.00,VWS V14.01,2013-02-18 10:15:00,
2013-02-18 05:20:00,38.4,29.1,30.34,ENE,65,1.0,3.0,69,0.00,,---,0.00,VWS V14.01,2013-02-18 10:20:00,
2013-02-18 05:25:00,38.6,29.0,30.35,NE,49,0.0,1.0,68,0.00,,---,0.00,VWS V14.01,2013-02-18 10:25:00,
2013-02-18 05:30:00,38.2,29.3,30.35,NE,48,0.0,0.0,70,0.00,,---,0.00,VWS V14.01,2013-02-18 10:30:00,
2013-02-18 05:35:00,37.6,29.4,30.35,NE,49,0.0,0.0,72,0.00,,---,0.00,VWS V14.01,2013-02-18 10:35:00,
2013-02-18 05:40:00,36.8,29.0,30.35,NE,48,0.0,0.0,73,0.00,,---,0.00,VWS V14.01,2013-02-18 10:40:00,
2013-02-18 05:45:00,36.3,29.1,30.35,NE,49,0.0,0.0,75,0.00,,---,0.00,VWS V14.01,2013-02-18 10:45:00,
2013-02-18 05:50:00,36.4,29.2,30.35,NE,48,0.0,0.0,75,0.00,,---,0.00,VWS V14.01,2013-02-18 10:50:00,
2013-02-18 05:55:00,36.5,29.0,30.35,NE,48,0.0,0.0,74,0.00,,---,0.00,VWS V14.01,2013-02-18 10:55:00,
2013-02-18 06:00:00,36.4,28.9,30.35,NE,49,0.0,0.0,74,0.00,,---,0.00,VWS V14.01,2013-02-18 11:00:00,
2013-02-18 06:05:00,36.4,28.6,30.35,NE,49,0.0,0.0,73,0.00,,---,0.00,VWS V14.01,2013-02-18 11:05:00,
2013-02-18 06:10:00,36.5,28.7,30.35,NE,49,0.0,0.0,73,0.00,,---,0.00,VWS V14.01,2013-02-18 11:10:00,
2013-02-18 06:15:00,36.5,28.7,30.35,NE,49,0.0,0.0,73,0.00,,---,0.00,VWS V14.01,2013-02-18 11:15:00,
2013-02-18 06:20:00,37.2,28.7,30.35,East,79,1.0,1.0,71,0.00,,---,0.00,VWS V14.01,2013-02-18 11:20:00,
2013-02-18 06:25:00,38.2,28.6,30.35,NNW,347,1.0,2.0,68,0.00,,---,0.00,VWS V14.01,2013-02-18 11:25:00,
2013-02-18 06:30:00,38.6,28.2,30.36,NE,56,1.0,2.0,66,0.00,,---,0.00,VWS V14.01,2013-02-18 11:30:00,
2013-02-18 06:35:00,39.0,28.2,30.36,NNE,30,2.0,5.0,65,0.00,,---,0.00,VWS V14.01,2013-02-18 11:35:00,
2013-02-18 06:40:00,39.5,28.0,30.36,North,9,6.0,6.0,63,0.00,,---,0.00,VWS V14.01,2013-02-18 11:40:00,
2013-02-18 06:45:00,39.9,27.6,30.36,NNE,33,4.0,5.0,61,0.00,,---,0.00,VWS V14.01,2013-02-18 11:45:00,
2013-02-18 06:50:00,40.4,27.2,30.36,ENE,64,2.0,5.0,59,0.00,,---,0.00,VWS V14.01,2013-02-18 11:50:00,
2013-02-18 06:55:00,40.8,26.8,30.36,NE,43,5.0,6.0,57,0.00,,---,0.00,VWS V14.01,2013-02-18 11:55:00,
2013-02-18 07:00:00,41.0,26.5,30.36,NE,51,4.0,9.0,56,0.00,,---,0.00,VWS V14.01,2013-02-18 12:00:00,
2013-02-18 07:05:00,41.3,26.4,30.36,ENE,72,2.0,7.0,55,0.00,,---,0.00,VWS V14.01,2013-02-18 12:05:00,
2013-02-18 07:10:00,41.5,26.1,30.36,NNE,16,4.0,8.0,54,0.00,,---,0.00,VWS V14.01,2013-02-18 12:10:00,
2013-02-18 07:15:00,41.8,25.9,30.36,ENE,60,7.0,9.0,53,0.00,,---,0.00,VWS V14.01,2013-02-18 12:15:00,
2013-02-18 07:20:00,42.0,26.6,30.36,NNE,17,5.0,6.0,54,0.00,,---,0.00,VWS V14.01,2013-02-18 12:20:00,
2013-02-18 07:25:00,42.3,26.4,30.36,NNE,16,3.0,7.0,53,0.00,,---,0.00,VWS V14.01,2013-02-18 12:25:00,
2013-02-18 07:30:00,42.5,26.6,30.37,East,95,2.0,6.0,53,0.00,,---,0.00,VWS V14.01,2013-02-18 12:30:00,
2013-02-18 07:35:00,42.8,26.4,30.37,NE,42,3.0,6.0,52,0.00,,---,0.00,VWS V14.01,2013-02-18 12:35:00,
2013-02-18 07:40:00,43.2,26.3,30.37,ENE,66,6.0,11.0,51,0.00,,---,0.00,VWS V14.01,2013-02-18 12:40:00,
2013-02-18 07:45:00,43.5,26.1,30.37,NE,40,4.0,9.0,50,0.00,,---,0.00,VWS V14.01,2013-02-18 12:45:00,
2013-02-18 07:50:00,43.8,26.4,30.37,NE,51,5.0,8.0,50,0.00,,---,0.00,VWS V14.01,2013-02-18 12:50:00,
2013-02-18 07:55:00,44.2,26.8,30.38,NNW,346,2.0,4.0,50,0.00,,---,0.00,VWS V14.01,2013-02-18 12:55:00,
2013-02-18 08:00:00,44.4,26.5,30.37,NE,51,5.0,6.0,49,0.00,,---,0.00,VWS V14.01,2013-02-18 13:00:00,
2013-02-18 08:05:00,44.9,25.9,30.37,NE,54,2.0,7.0,47,0.00,,---,0.00,VWS V14.01,2013-02-18 13:05:00,
2013-02-18 08:10:00,45.5,25.9,30.37,NE,46,2.0,8.0,46,0.00,,---,0.00,VWS V14.01,2013-02-18 13:10:00,
2013-02-18 08:15:00,46.0,25.9,30.37,ENE,75,4.0,12.0,45,0.00,,---,0.00,VWS V14.01,2013-02-18 13:15:00,
2013-02-18 08:20:00,46.5,25.8,30.37,East,81,7.0,9.0,44,0.00,,---,0.00,VWS V14.01,2013-02-18 13:20:00,
2013-02-18 08:25:00,47.0,26.8,30.38,North,11,4.0,5.0,45,0.00,,---,0.00,VWS V14.01,2013-02-18 13:25:00,
2013-02-18 08:30:00,47.5,27.2,30.38,East,91,1.0,7.0,45,0.00,,---,0.00,VWS V14.01,2013-02-18 13:30:00,
2013-02-18 08:35:00,47.8,27.5,30.38,North,8,4.0,4.0,45,0.00,,---,0.00,VWS V14.01,2013-02-18 13:35:00,
2013-02-18 08:40:00,48.3,26.9,30.38,NW,308,4.0,7.0,43,0.00,,---,0.00,VWS V14.01,2013-02-18 13:40:00,
2013-02-18 08:45:00,48.7,27.2,30.38,NE,39,4.0,8.0,43,0.00,,---,0.00,VWS V14.01,2013-02-18 13:45:00,
2013-02-18 08:50:00,49.2,27.1,30.38,NE,43,10.0,10.0,42,0.00,,---,0.00,VWS V14.01,2013-02-18 13:50:00,
2013-02-18 08:55:00,49.5,27.4,30.38,SSE,149,1.0,5.0,42,0.00,,---,0.00,VWS V14.01,2013-02-18 13:55:00,
2013-02-18 09:00:00,50.2,28.0,30.38,NNW,346,6.0,7.0,42,0.00,,---,0.00,VWS V14.01,2013-02-18 14:00:00,
2013-02-18 09:05:00,50.5,28.3,30.38,East,81,6.0,9.0,42,0.00,,---,0.00,VWS V14.01,2013-02-18 14:05:00,
2013-02-18 09:10:00,50.9,29.2,30.38,East,79,2.0,5.0,43,0.00,,---,0.00,VWS V14.01,2013-02-18 14:10:00,
2013-02-18 09:15:00,51.6,30.4,30.38,NE,50,4.0,8.0,44,0.00,,---,0.00,VWS V14.01,2013-02-18 14:15:00,
2013-02-18 09:20:00,52.4,31.7,30.38,NNE,13,7.0,7.0,45,0.00,,---,0.00,VWS V14.01,2013-02-18 14:20:00,
2013-02-18 09:25:00,52.9,32.2,30.38,NW,326,3.0,3.0,45,0.00,,---,0.00,VWS V14.01,2013-02-18 14:25:00,
2013-02-18 09:30:00,53.3,33.1,30.38,ENE,70,1.0,5.0,46,0.00,,---,0.00,VWS V14.01,2013-02-18 14:30:00,
2013-02-18 09:35:00,53.6,33.3,30.38,East,79,2.0,10.0,46,0.00,,---,0.00,VWS V14.01,2013-02-18 14:35:00,
2013-02-18 09:40:00,54.0,34.2,30.38,NE,46,9.0,9.0,47,0.00,,---,0.00,VWS V14.01,2013-02-18 14:40:00,
2013-02-18 09:45:00,54.3,34.0,30.38,ENE,62,2.0,3.0,46,0.00,,---,0.00,VWS V14.01,2013-02-18 14:45:00,
2013-02-18 09:50:00,54.9,35.1,30.38,NE,34,3.0,9.0,47,0.00,,---,0.00,VWS V14.01,2013-02-18 14:50:00,
2013-02-18 09:55:00,55.9,37.0,30.38,NW,315,3.0,4.0,49,0.00,,---,0.00,VWS V14.01,2013-02-18 14:55:00,
2013-02-18 10:00:00,56.5,37.6,30.38,NE,51,9.0,10.0,49,0.00,,---,0.00,VWS V14.01,2013-02-18 15:00:00,
2013-02-18 10:05:00,56.7,37.2,30.38,ENE,64,7.0,10.0,48,0.00,,---,0.00,VWS V14.01,2013-02-18 15:05:00,
2013-02-18 10:10:00,56.8,37.9,30.38,NNE,20,4.0,9.0,49,0.00,,---,0.00,VWS V14.01,2013-02-18 15:10:00,
2013-02-18 10:15:00,57.4,37.9,30.38,NNE,19,6.0,6.0,48,0.00,,---,0.00,VWS V14.01,2013-02-18 15:15:00,
2013-02-18 10:20:00,58.2,39.2,30.38,NE,37,4.0,4.0,49,0.00,,---,0.00,VWS V14.01,2013-02-18 15:20:00,
2013-02-18 10:25:00,58.6,39.0,30.38,NE,49,5.0,8.0,48,0.00,,---,0.00,VWS V14.01,2013-02-18 15:25:00,
2013-02-18 10:30:00,58.9,40.3,30.38,East,94,4.0,4.0,50,0.00,,---,0.00,VWS V14.01,2013-02-18 15:30:00,
2013-02-18 10:35:00,59.5,40.3,30.38,North,8,7.0,7.0,49,0.00,,---,0.00,VWS V14.01,2013-02-18 15:35:00,
2013-02-18 10:40:00,59.3,40.2,30.37,NNE,30,5.0,6.0,49,0.00,,---,0.00,VWS V14.01,2013-02-18 15:40:00,
2013-02-18 10:45:00,60.0,40.8,30.37,NE,40,4.0,9.0,49,0.00,,---,0.00,VWS V14.01,2013-02-18 15:45:00,
2013-02-18 10:50:00,60.7,41.5,30.37,East,91,5.0,7.0,49,0.00,,---,0.00,VWS V14.01,2013-02-18 15:50:00,
2013-02-18 10:55:00,61.2,41.9,30.37,NE,41,6.0,6.0,49,0.00,,---,0.00,VWS V14.01,2013-02-18 15:55:00,
2013-02-18 11:00:00,61.7,42.4,30.38,NNE,20,5.0,7.0,49,0.00,,---,0.00,VWS V14.01,2013-02-18 16:00:00,
2013-02-18 11:05:00,61.4,42.1,30.38,NNE,15,5.0,6.0,49,0.00,,---,0.00,VWS V14.01,2013-02-18 16:05:00,
2013-02-18 11:10:00,61.6,42.3,30.37,East,79,6.0,10.0,49,0.00,,---,0.00,VWS V14.01,2013-02-18 16:10:00,
2013-02-18 11:15:00,62.3,43.4,30.37,NE,39,3.0,3.0,50,0.00,,---,0.00,VWS V14.01,2013-02-18 16:15:00,
2013-02-18 11:20:00,62.7,43.8,30.37,WNW,289,1.0,4.0,50,0.00,,---,0.00,VWS V14.01,2013-02-18 16:20:00,
2013-02-18 11:25:00,63.5,44.0,30.37,NE,54,7.0,7.0,49,0.00,,---,0.00,VWS V14.01,2013-02-18 16:25:00,
2013-02-18 11:30:00,63.6,44.1,30.37,NE,46,5.0,5.0,49,0.00,,---,0.00,VWS V14.01,2013-02-18 16:30:00,
2013-02-18 11:35:00,64.1,44.6,30.36,NE,37,4.0,4.0,49,0.00,,---,0.00,VWS V14.01,2013-02-18 16:35:00,
2013-02-18 11:40:00,64.6,45.0,30.36,ENE,62,7.0,7.0,49,0.00,,---,0.00,VWS V14.01,2013-02-18 16:40:00,
2013-02-18 11:45:00,65.0,45.9,30.36,SW,228,7.0,7.0,50,0.00,,---,0.00,VWS V14.01,2013-02-18 16:45:00,
2013-02-18 11:50:00,65.6,46.0,30.36,NNE,29,9.0,10.0,49,0.00,,---,0.00,VWS V14.01,2013-02-18 16:50:00,
2013-02-18 11:55:00,65.4,46.3,30.36,East,94,1.0,2.0,50,0.00,,---,0.00,VWS V14.01,2013-02-18 16:55:00,
2013-02-18 12:00:00,65.5,46.4,30.35,NE,37,12.0,16.0,50,0.00,,---,0.00,VWS V14.01,2013-02-18 17:00:00,
2013-02-18 12:06:00,65.7,46.6,30.35,SE,128,4.0,6.0,50,0.00,,---,0.00,VWS V14.01,2013-02-18 17:06:00,
2013-02-18 12:11:00,66.6,46.3,30.35,East,83,7.0,10.0,48,0.00,,---,0.00,VWS V14.01,2013-02-18 17:11:00,
2013-02-18 12:16:00,66.6,47.4,30.34,NNE,19,6.0,6.0,50,0.00,,---,0.00,VWS V14.01,2013-02-18 17:16:00,
2013-02-18 12:21:00,68.1,48.2,30.34,SE,136,3.0,8.0,49,0.00,,---,0.00,VWS V14.01,2013-02-18 17:21:00,
2013-02-18 12:26:00,67.6,47.8,30.34,NE,42,1.0,3.0,49,0.00,,---,0.00,VWS V14.01,2013-02-18 17:26:00,
2013-02-18 12:31:00,68.3,48.4,30.34,East,82,7.0,9.0,49,0.00,,---,0.00,VWS V14.01,2013-02-18 17:31:00,
2013-02-18 12:36:00,68.8,47.8,30.34,NE,39,4.0,5.0,47,0.00,,---,0.00,VWS V14.01,2013-02-18 17:36:00,
2013-02-18 12:41:00,68.8,48.3,30.34,ESE,122,4.0,6.0,48,0.00,,---,0.00,VWS V14.01,2013-02-18 17:41:00,
2013-02-18 12:46:00,68.8,47.8,30.33,SW,218,2.0,4.0,47,0.00,,---,0.00,VWS V14.01,2013-02-18 17:46:00,
2013-02-18 12:51:00,69.2,48.7,30.32,ESE,107,4.0,6.0,48,0.00,,---,0.00,VWS V14.01,2013-02-18 17:51:00,
2013-02-18 12:56:00,69.7,48.6,30.32,SSW,212,2.0,3.0,47,0.00,,---,0.00,VWS V14.01,2013-02-18 17:56:00,
2013-02-18 13:01:00,69.2,48.1,30.32,ENE,62,7.0,13.0,47,0.00,,---,0.00,VWS V14.01,2013-02-18 18:01:00,
2013-02-18 13:06:00,69.2,48.1,30.31,East,79,11.0,13.0,47,0.00,,---,0.00,VWS V14.01,2013-02-18 18:06:00,
2013-02-18 13:11:00,69.0,48.5,30.30,ENE,76,6.0,13.0,48,0.00,,---,0.00,VWS V14.01,2013-02-18 18:11:00,
2013-02-18 13:16:00,68.4,48.5,30.30,ESE,117,8.0,8.0,49,0.00,,---,0.00,VWS V14.01,2013-02-18 18:16:00,
2013-02-18 13:21:00,68.8,48.9,30.30,ENE,70,5.0,7.0,49,0.00,,---,0.00,VWS V14.01,2013-02-18 18:21:00,
2013-02-18 13:26:00,69.1,48.6,30.30,NNW,328,9.0,12.0,48,0.00,,---,0.00,VWS V14.01,2013-02-18 18:26:00,
2013-02-18 13:31:00,69.2,48.7,30.30,SE,141,3.0,9.0,48,0.00,,---,0.00,VWS V14.01,2013-02-18 18:31:00,
2013-02-18 13:36:00,70.3,49.1,30.30,NE,54,5.0,5.0,47,0.00,,---,0.00,VWS V14.01,2013-02-18 18:36:00,
2013-02-18 13:41:00,70.7,48.3,30.29,ENE,65,11.0,12.0,45,0.00,,---,0.00,VWS V14.01,2013-02-18 18:41:00,
2013-02-18 13:46:00,70.1,49.0,30.29,East,97,8.0,8.0,47,0.00,,---,0.00,VWS V14.01,2013-02-18 18:46:00,
2013-02-18 13:51:00,70.2,48.5,30.29,ENE,74,10.0,10.0,46,0.00,,---,0.00,VWS V14.01,2013-02-18 18:51:00,
2013-02-18 13:56:00,70.9,48.5,30.28,WSW,240,3.0,7.0,45,0.00,,---,0.00,VWS V14.01,2013-02-18 18:56:00,
2013-02-18 14:01:00,71.1,49.3,30.28,NE,42,5.0,8.0,46,0.00,,---,0.00,VWS V14.01,2013-02-18 19:01:00,
2013-02-18 14:06:00,70.7,48.9,30.28,East,88,6.0,12.0,46,0.00,,---,0.00,VWS V14.01,2013-02-18 19:06:00,
2013-02-18 14:11:00,69.3,48.2,30.28,East,82,3.0,3.0,47,0.00,,---,0.00,VWS V14.01,2013-02-18 19:11:00,
2013-02-18 14:16:00,70.0,48.3,30.27,WSW,238,1.0,4.0,46,0.00,,---,0.00,VWS V14.01,2013-02-18 19:16:00,
2013-02-18 14:21:00,70.6,48.2,30.27,NW,304,3.0,6.0,45,0.00,,---,0.00,VWS V14.01,2013-02-18 19:21:00,
2013-02-18 14:26:00,70.3,48.6,30.27,ENE,77,6.0,6.0,46,0.00,,---,0.00,VWS V14.01,2013-02-18 19:26:00,
2013-02-18 14:31:00,69.9,48.2,30.27,ESE,112,3.0,7.0,46,0.00,,---,0.00,VWS V14.01,2013-02-18 19:31:00,
2013-02-18 14:36:00,69.4,47.7,30.27,East,96,4.0,9.0,46,0.00,,---,0.00,VWS V14.01,2013-02-18 19:36:00,
2013-02-18 14:41:00,69.7,48.0,30.27,SSE,166,2.0,10.0,46,0.00,,---,0.00,VWS V14.01,2013-02-18 19:41:00,
2013-02-18 14:46:00,69.6,48.5,30.27,SW,233,2.0,4.0,47,0.00,,---,0.00,VWS V14.01,2013-02-18 19:46:00,
2013-02-18 14:51:00,70.4,48.1,30.27,SW,214,1.0,3.0,45,0.00,,---,0.00,VWS V14.01,2013-02-18 19:51:00,
2013-02-18 14:56:00,71.8,49.3,30.27,SE,138,3.0,7.0,45,0.00,,---,0.00,VWS V14.01,2013-02-18 19:56:00,
2013-02-18 15:01:00,72.0,48.9,30.27,ENE,60,7.0,9.0,44,0.00,,---,0.00,VWS V14.01,2013-02-18 20:01:00,
2013-02-18 15:06:00,71.1,48.1,30.27,East,82,6.0,7.0,44,0.00,,---,0.00,VWS V14.01,2013-02-18 20:06:00,
2013-02-18 15:11:00,70.5,48.2,30.27,NE,53,7.0,7.0,45,0.00,,---,0.00,VWS V14.01,2013-02-18 20:11:00,
2013-02-18 15:16:00,70.9,48.5,30.27,East,80,6.0,7.0,45,0.00,,---,0.00,VWS V14.01,2013-02-18 20:16:00,
2013-02-18 15:21:00,71.6,49.2,30.27,SSE,166,3.0,4.0,45,0.00,,---,0.00,VWS V14.01,2013-02-18 20:21:00,
2013-02-18 15:26:00,72.0,48.9,30.26,SW,233,5.0,5.0,44,0.00,,---,0.00,VWS V14.01,2013-02-18 20:26:00,
2013-02-18 15:31:00,72.7,48.9,30.26,East,96,6.0,6.0,43,0.00,,---,0.00,VWS V14.01,2013-02-18 20:31:00,
2013-02-18 15:36:00,72.4,48.7,30.26,ESE,105,4.0,4.0,43,0.00,,---,0.00,VWS V14.01,2013-02-18 20:36:00,
2013-02-18 15:41:00,71.7,48.7,30.26,East,85,3.0,5.0,44,0.00,,---,0.00,VWS V14.01,2013-02-18 20:41:00,
2013-02-18 15:46:00,71.3,48.3,30.26,ENE,76,3.0,7.0,44,0.00,,---,0.00,VWS V14.01,2013-02-18 20:46:00,
2013-02-18 15:51:00,70.6,48.8,30.26,WSW,255,1.0,4.0,46,0.00,,---,0.00,VWS V14.01,2013-02-18 20:51:00,
2013-02-18 15:56:00,70.5,48.2,30.26,ENE,76,6.0,9.0,45,0.00,,---,0.00,VWS V14.01,2013-02-18 20:56:00,
2013-02-18 16:01:00,69.8,47.5,30.26,East,84,5.0,9.0,45,0.00,,---,0.00,VWS V14.01,2013-02-18 21:01:00,
2013-02-18 16:06:00,70.0,47.7,30.26,SE,135,4.0,8.0,45,0.00,,---,0.00,VWS V14.01,2013-02-18 21:06:00,
2013-02-18 16:11:00,71.0,48.0,30.26,East,100,5.0,8.0,44,0.00,,---,0.00,VWS V14.01,2013-02-18 21:11:00,
2013-02-18 16:16:00,71.6,49.2,30.26,East,84,3.0,6.0,45,0.00,,---,0.00,VWS V14.01,2013-02-18 21:16:00,
2013-02-18 16:21:00,71.6,47.9,30.26,North,356,3.0,4.0,43,0.00,,---,0.00,VWS V14.01,2013-02-18 21:21:00,
2013-02-18 16:26:00,71.7,48.7,30.26,ESE,112,6.0,7.0,44,0.00,,---,0.00,VWS V14.01,2013-02-18 21:26:00,
2013-02-18 16:31:00,71.1,48.7,30.26,SW,222,3.0,5.0,45,0.00,,---,0.00,VWS V14.01,2013-02-18 21:31:00,
2013-02-18 16:36:00,71.3,48.9,30.26,WSW,239,0.0,3.0,45,0.00,,---,0.00,VWS V14.01,2013-02-18 21:36:00,
2013-02-18 16:41:00,71.4,48.4,30.25,East,85,7.0,9.0,44,0.00,,---,0.00,VWS V14.01,2013-02-18 21:41:00,
2013-02-18 16:46:00,71.2,48.2,30.25,NE,39,9.0,9.0,44,0.00,,---,0.00,VWS V14.01,2013-02-18 21:46:00,
2013-02-18 16:51:00,70.7,48.3,30.25,East,85,5.0,8.0,45,0.00,,---,0.00,VWS V14.01,2013-02-18 21:51:00,
2013-02-18 16:56:00,69.9,48.2,30.25,ENE,73,5.0,12.0,46,0.00,,---,0.00,VWS V14.01,2013-02-18 21:56:00,
2013-02-18 17:01:00,69.4,48.3,30.26,SW,214,3.0,6.0,47,0.00,,---,0.00,VWS V14.01,2013-02-18 22:01:00,
2013-02-18 17:06:00,69.5,47.8,30.25,NE,44,4.0,4.0,46,0.00,,---,0.00,VWS V14.01,2013-02-18 22:06:00,
2013-02-18 17:11:00,69.2,47.6,30.25,SE,144,3.0,6.0,46,0.00,,---,0.00,VWS V14.01,2013-02-18 22:11:00,
2013-02-18 17:16:00,68.8,47.8,30.25,SSE,156,1.0,3.0,47,0.00,,---,0.00,VWS V14.01,2013-02-18 22:16:00,
2013-02-18 17:21:00,68.9,47.9,30.26,NNW,337,1.0,5.0,47,0.00,,---,0.00,VWS V14.01,2013-02-18 22:21:00,
2013-02-18 17:26:00,69.2,48.7,30.25,ENE,78,3.0,3.0,48,0.00,,---,0.00,VWS V14.01,2013-02-18 22:26:00,
2013-02-18 17:31:00,69.4,48.9,30.26,South,169,0.0,1.0,48,0.00,,---,0.00,VWS V14.01,2013-02-18 22:31:00,
2013-02-18 17:36:00,69.3,48.2,30.26,ESE,116,7.0,7.0,47,0.00,,---,0.00,VWS V14.01,2013-02-18 22:36:00,
2013-02-18 17:41:00,68.7,48.2,30.26,North,359,6.0,9.0,48,0.00,,---,0.00,VWS V14.01,2013-02-18 22:41:00,
2013-02-18 17:46:00,68.3,48.4,30.26,ENE,75,3.0,6.0,49,0.00,,---,0.00,VWS V14.01,2013-02-18 22:46:00,
2013-02-18 17:51:00,68.0,48.7,30.25,East,101,3.0,6.0,50,0.00,,---,0.00,VWS V14.01,2013-02-18 22:51:00,
2013-02-18 17:56:00,67.8,48.5,30.25,ESE,116,2.0,4.0,50,0.00,,---,0.00,VWS V14.01,2013-02-18 22:56:00,
2013-02-18 18:01:00,67.6,48.3,30.26,ESE,118,3.0,8.0,50,0.00,,---,0.00,VWS V14.01,2013-02-18 23:01:00,
2013-02-18 18:06:00,67.4,48.7,30.26,North,9,0.0,1.0,51,0.00,,---,0.00,VWS V14.01,2013-02-18 23:06:00,
2013-02-18 18:11:00,67.1,48.4,30.26,ENE,77,2.0,3.0,51,0.00,,---,0.00,VWS V14.01,2013-02-18 23:11:00,
2013-02-18 18:16:00,66.8,48.6,30.26,East,88,3.0,5.0,52,0.00,,---,0.00,VWS V14.01,2013-02-18 23:16:00,
2013-02-18 18:21:00,66.5,48.3,30.26,NE,43,3.0,3.0,52,0.00,,---,0.00,VWS V14.01,2013-02-18 23:21:00,
2013-02-18 18:26:00,66.1,48.5,30.26,NNE,27,3.0,5.0,53,0.00,,---,0.00,VWS V14.01,2013-02-18 23:26:00,
2013-02-18 18:31:00,65.8,48.7,30.26,East,82,2.0,2.0,54,0.00,,---,0.00,VWS V14.01,2013-02-18 23:31:00,
2013-02-18 18:36:00,65.4,48.8,30.26,SW,218,1.0,5.0,55,0.00,,---,0.00,VWS V14.01,2013-02-18 23:36:00,
2013-02-18 18:41:00,65.0,48.9,30.26,ENE,77,5.0,5.0,56,0.00,,---,0.00,VWS V14.01,2013-02-18 23:41:00,
2013-02-18 18:46:00,64.7,49.1,30.26,East,101,3.0,3.0,57,0.00,,---,0.00,VWS V14.01,2013-02-18 23:46:00,
2013-02-18 18:51:00,64.4,49.3,30.26,ENE,76,1.0,3.0,58,0.00,,---,0.00,VWS V14.01,2013-02-18 23:51:00,
2013-02-18 18:56:00,64.1,49.0,30.27,East,82,0.0,2.0,58,0.00,,---,0.00,VWS V14.01,2013-02-18 23:56:00,
2013-02-18 19:01:00,63.9,49.3,30.27,ENE,72,3.0,5.0,59,0.00,,---,0.00,VWS V14.01,2013-02-19 00:01:00,
2013-02-18 19:06:00,63.8,49.7,30.27,ENE,60,2.0,2.0,60,0.00,,---,0.00,VWS V14.01,2013-02-19 00:06:00,
2013-02-18 19:11:00,63.5,49.8,30.27,NNE,20,2.0,3.0,61,0.00,,---,0.00,VWS V14.01,2013-02-19 00:11:00,
2013-02-18 19:16:00,63.3,50.1,30.26,ENE,66,3.0,7.0,62,0.00,,---,0.00,VWS V14.01,2013-02-19 00:16:00,
2013-02-18 19:21:00,63.2,50.0,30.26,ENE,75,2.0,5.0,62,0.00,,---,0.00,VWS V14.01,2013-02-19 00:21:00,
2013-02-18 19:26:00,63.0,50.2,30.26,East,87,1.0,2.0,63,0.00,,---,0.00,VWS V14.01,2013-02-19 00:26:00,
2013-02-18 19:31:00,62.7,50.4,30.26,NE,37,1.0,2.0,64,0.00,,---,0.00,VWS V14.01,2013-02-19 00:31:00,
2013-02-18 19:36:00,62.5,50.2,30.27,ESE,117,2.0,4.0,64,0.00,,---,0.00,VWS V14.01,2013-02-19 00:36:00,
2013-02-18 19:41:00,62.4,50.5,30.27,NE,37,3.0,4.0,65,0.00,,---,0.00,VWS V14.01,2013-02-19 00:41:00,
2013-02-18 19:46:00,62.3,50.4,30.27,ENE,77,1.0,3.0,65,0.00,,---,0.00,VWS V14.01,2013-02-19 00:46:00,
2013-02-18 19:51:00,62.0,50.5,30.27,ESE,115,3.0,4.0,66,0.00,,---,0.00,VWS V14.01,2013-02-19 00:51:00,
2013-02-18 19:56:00,62.0,50.5,30.27,East,91,3.0,3.0,66,0.00,,---,0.00,VWS V14.01,2013-02-19 00:56:00,
2013-02-18 20:01:00,61.8,50.7,30.26,NNE,27,2.0,2.0,67,0.00,,---,0.00,VWS V14.01,2013-02-19 01:01:00,
2013-02-18 20:06:00,61.6,50.5,30.26,WSW,257,2.0,4.0,67,0.00,,---,0.00,VWS V14.01,2013-02-19 01:06:00,
2013-02-18 20:11:00,61.6,50.5,30.27,ENE,72,2.0,2.0,67,0.00,,---,0.00,VWS V14.01,2013-02-19 01:11:00,
2013-02-18 20:16:00,61.5,50.8,30.27,East,96,1.0,1.0,68,0.00,,---,0.00,VWS V14.01,2013-02-19 01:16:00,
2013-02-18 20:21:00,61.4,50.8,30.27,East,94,2.0,4.0,68,0.00,,---,0.00,VWS V14.01,2013-02-19 01:21:00,
2013-02-18 20:26:00,61.3,50.7,30.27,NE,42,0.0,2.0,68,0.00,,---,0.00,VWS V14.01,2013-02-19 01:26:00,
2013-02-18 20:31:00,61.2,51.0,30.27,NNE,32,3.0,4.0,69,0.00,,---,0.00,VWS V14.01,2013-02-19 01:31:00,
2013-02-18 20:36:00,61.0,50.8,30.27,East,89,2.0,2.0,69,0.00,,---,0.00,VWS V14.01,2013-02-19 01:36:00,
2013-02-18 20:41:00,60.8,51.0,30.27,NE,46,4.0,4.0,70,0.00,,---,0.00,VWS V14.01,2013-02-19 01:41:00,
2013-02-18 20:46:00,60.8,51.0,30.27,ENE,65,1.0,1.0,70,0.00,,---,0.00,VWS V14.01,2013-02-19 01:46:00,
2013-02-18 20:51:00,60.7,50.9,30.27,East,87,2.0,7.0,70,0.00,,---,0.00,VWS V14.01,2013-02-19 01:51:00,
2013-02-18 20:56:00,60.6,51.2,30.28,NNE,31,2.0,2.0,71,0.00,,---,0.00,VWS V14.01,2013-02-19 01:56:00,
2013-02-18 21:01:00,60.7,51.2,30.28,East,98,2.0,3.0,71,0.00,,---,0.00,VWS V14.01,2013-02-19 02:01:00,
2013-02-18 21:06:00,60.6,51.2,30.28,ENE,68,2.0,2.0,71,0.00,,---,0.00,VWS V14.01,2013-02-19 02:06:00,
2013-02-18 21:11:00,60.4,51.0,30.28,ENE,68,3.0,3.0,71,0.00,,---,0.00,VWS V14.01,2013-02-19 02:11:00,
2013-02-18 21:16:00,60.3,50.9,30.28,NE,56,6.0,6.0,71,0.00,,---,0.00,VWS V14.01,2013-02-19 02:16:00,
2013-02-18 21:21:00,60.2,50.8,30.28,East,86,2.0,2.0,71,0.00,,---,0.00,VWS V14.01,2013-02-19 02:21:00,
2013-02-18 21:26:00,60.1,50.7,30.28,ENE,77,0.0,1.0,71,0.00,,---,0.00,VWS V14.01,2013-02-19 02:26:00,
2013-02-18 21:31:00,60.0,51.0,30.28,East,91,4.0,4.0,72,0.00,,---,0.00,VWS V14.01,2013-02-19 02:31:00,
2013-02-18 21:37:00,59.9,50.9,30.28,NE,37,3.0,4.0,72,0.00,,---,0.00,VWS V14.01,2013-02-19 02:37:00,
2013-02-18 21:41:00,59.9,50.9,30.28,NNE,23,2.0,2.0,72,0.00,,---,0.00,VWS V14.01,2013-02-19 02:41:00,
2013-02-18 21:46:00,59.7,50.7,30.28,NE,56,2.0,3.0,72,0.00,,---,0.00,VWS V14.01,2013-02-19 02:46:00,
2013-02-18 21:52:00,59.5,50.8,30.28,ESE,117,1.0,2.0,73,0.00,,---,0.00,VWS V14.01,2013-02-19 02:52:00,
2013-02-18 21:57:00,59.4,50.8,30.28,SE,125,1.0,3.0,73,0.00,,---,0.00,VWS V14.01,2013-02-19 02:57:00,
2013-02-18 22:02:00,59.2,50.6,30.28,East,99,2.0,2.0,73,0.00,,---,0.00,VWS V14.01,2013-02-19 03:02:00,
2013-02-18 22:07:00,59.0,50.4,30.28,South,174,4.0,4.0,73,0.00,,---,0.00,VWS V14.01,2013-02-19 03:07:00,
2013-02-18 22:12:00,59.1,50.5,30.28,ENE,65,2.0,3.0,73,0.00,,---,0.00,VWS V14.01,2013-02-19 03:12:00,
2013-02-18 22:17:00,59.0,50.4,30.28,ESE,108,2.0,2.0,73,0.00,,---,0.00,VWS V14.01,2013-02-19 03:17:00,
2013-02-18 22:22:00,58.8,50.5,30.28,ENE,77,2.0,2.0,74,0.00,,---,0.00,VWS V14.01,2013-02-19 03:22:00,
2013-02-18 22:27:00,58.6,50.7,30.28,NE,43,2.0,2.0,75,0.00,,---,0.00,VWS V14.01,2013-02-19 03:27:00,
2013-02-18 22:32:00,58.4,50.5,30.28,East,81,2.0,3.0,75,0.00,,---,0.00,VWS V14.01,2013-02-19 03:32:00,
2013-02-18 22:37:00,58.3,50.8,30.28,East,85,1.0,2.0,76,0.00,,---,0.00,VWS V14.01,2013-02-19 03:37:00,
2013-02-18 22:42:00,58.2,50.7,30.28,ENE,74,1.0,2.0,76,0.00,,---,0.00,VWS V14.01,2013-02-19 03:42:00,
2013-02-18 22:47:00,58.0,50.5,30.28,East,82,1.0,2.0,76,0.00,,---,0.00,VWS V14.01,2013-02-19 03:47:00,
2013-02-18 22:52:00,57.8,50.3,30.27,ENE,75,1.0,1.0,76,0.00,,---,0.00,VWS V14.01,2013-02-19 03:52:00,
2013-02-18 22:57:00,57.7,50.5,30.27,East,87,1.0,2.0,77,0.00,,---,0.00,VWS V14.01,2013-02-19 03:57:00,
2013-02-18 23:02:00,57.6,50.5,30.27,East,82,0.0,2.0,77,0.00,,---,0.00,VWS V14.01,2013-02-19 04:02:00,
2013-02-18 23:07:00,57.5,50.4,30.27,ENE,77,1.0,3.0,77,0.00,,---,0.00,VWS V14.01,2013-02-19 04:07:00,
2013-02-18 23:12:00,57.2,50.1,30.27,NE,50,1.0,3.0,77,0.00,,---,0.00,VWS V14.01,2013-02-19 04:12:00,
2013-02-18 23:17:00,57.1,50.0,30.27,ESE,120,0.0,1.0,77,0.00,,---,0.00,VWS V14.01,2013-02-19 04:17:00,
2013-02-18 23:22:00,56.8,49.7,30.26,ESE,120,0.0,0.0,77,0.00,,---,0.00,VWS V14.01,2013-02-19 04:22:00,
2013-02-18 23:27:00,56.3,49.9,30.26,ESE,115,1.0,2.0,79,0.00,,---,0.00,VWS V14.01,2013-02-19 04:27:00,
2013-02-18 23:32:00,56.2,49.8,30.26,ESE,116,1.0,1.0,79,0.00,,---,0.00,VWS V14.01,2013-02-19 04:32:00,
2013-02-18 23:37:00,56.1,49.7,30.26,ESE,120,1.0,1.0,79,0.00,,---,0.00,VWS V14.01,2013-02-19 04:37:00,
2013-02-18 23:42:00,56.1,49.7,30.25,East,91,1.0,1.0,79,0.00,,---,0.00,VWS V14.01,2013-02-19 04:42:00,
2013-02-18 23:47:00,55.9,49.8,30.25,East,87,1.0,1.0,80,0.00,,---,0.00,VWS V14.01,2013-02-19 04:47:00,
2013-02-18 23:52:00,55.8,49.7,30.25,East,88,1.0,1.0,80,0.00,,---,0.00,VWS V14.01,2013-02-19 04:52:00,
2013-02-18 23:57:00,55.9,49.8,30.25,East,89,0.0,1.0,80,0.00,,---,0.00,VWS V14.01,2013-02-19 04:57:00,